Date String (YYYY-MM-DD hh:mm:ss) UTC,Instrument flags,Ambient pressure (hPa),Sample flow (lpm),Bypass flow (lpm),Sample temperature (°C),Ambient temperature (°C),ASC tube jacket temperature (°C),LED temperature (°C),Box temperature (°C),Sample RH (%),Span deviation,Mass concentration (μg/m³),Mass concentration (μg/m³),Mass concentration (μg/m³)
DateTimeUTC,F1_M11,P_M11,Q1_M11,Q2_M11,T1_M11,T2_M11,T3_M11,T4_M11,T5_M11,U1_M11,ZSPAN_M11,X0_M11,X2_M11,X1_M11
2022-10-13 00:00:00,,0829.9,5.01,0.00,30.5,29.0,00.0,39.3,32.3,13.6,0000.0,0021.04,0006.55,0005.03
2022-10-13 00:01:00,,0829.9,5.01,0.00,30.5,29.0,00.0,39.3,32.3,13.7,0000.0,0021.02,0006.55,0005.02
2022-10-13 00:02:00,,0830.0,4.98,0.00,30.5,28.9,00.0,39.3,32.3,13.7,0000.0,0021.54,0006.49,0005.02
2022-10-13 00:03:00,,0830.1,4.99,0.00,30.5,28.9,00.0,39.3,32.3,13.8,0000.0,0022.00,0006.49,0005.03
2022-10-13 00:04:00,,0830.1,5.00,0.00,30.5,28.9,00.0,39.4,32.3,13.8,0000.0,0021.31,0006.50,0005.06
2022-10-13 00:05:00,,0830.1,5.00,0.00,30.5,29.0,00.0,39.4,32.3,13.9,0000.0,0021.58,0006.57,0005.09
2022-10-13 00:06:00,,0830.1,4.98,0.00,30.5,29.0,00.0,39.4,32.3,13.8,0000.0,0022.22,0006.62,0005.10
2022-10-13 00:07:00,,0830.1,5.00,0.00,30.5,28.2,00.0,39.3,32.3,13.8,0000.0,0021.77,0006.66,0005.12
2022-10-13 00:08:00,,0830.1,5.02,0.00,30.5,26.8,00.0,39.3,32.1,13.8,0000.0,0022.30,0006.69,0005.14
2022-10-13 00:09:00,,0830.1,4.99,0.00,30.4,26.5,00.0,39.2,32.0,13.7,0000.0,0022.10,0006.70,0005.17
2022-10-13 00:10:00,,0830.1,5.00,0.00,30.3,26.8,00.0,39.2,31.9,13.8,0000.0,0021.82,0006.66,0005.20
2022-10-13 00:11:00,,0830.1,5.01,0.00,30.2,27.2,00.0,39.1,31.8,13.9,0000.4,0021.83,0006.70,0005.20
2022-10-13 00:12:00,,0830.1,4.99,0.00,30.2,27.5,00.0,39.1,31.9,13.9,0000.0,0021.63,0006.71,0005.19
2022-10-13 00:13:00,,0830.1,5.00,0.00,30.2,27.8,00.0,39.1,31.9,13.9,0000.2,0021.26,0006.78,0005.18
2022-10-13 00:14:00,,0830.1,5.01,0.00,30.2,28.0,00.0,39.1,31.9,13.9,0000.2,0021.26,0006.72,0005.15
2022-10-13 00:15:00,,0830.1,5.01,0.00,30.2,28.2,00.0,39.0,31.9,13.9,0000.0,0021.27,0006.67,0005.10
2022-10-13 00:16:00,,0830.1,4.98,0.00,30.2,28.3,00.0,39.0,31.9,13.8,0000.0,0021.94,0006.62,0005.06
2022-10-13 00:17:00,,0830.1,5.00,0.00,30.2,28.4,00.0,39.0,31.9,13.9,0000.0,0021.72,0006.58,0005.02
2022-10-13 00:18:00,,0830.1,5.01,0.00,30.1,28.5,00.0,39.0,31.9,13.9,0000.0,0020.94,0006.55,0004.99
2022-10-13 00:19:00,,0830.1,5.00,0.00,30.2,28.6,00.0,39.0,32.0,13.9,0000.0,0020.39,0006.49,0004.95
2022-10-13 00:20:00,,0830.1,4.98,0.00,30.2,28.6,00.0,39.0,32.0,13.9,0000.0,0020.21,0006.44,0004.90
2022-10-13 00:21:00,,0830.1,5.01,0.00,30.2,28.6,00.0,39.0,32.0,13.9,0000.0,0020.17,0006.42,0004.87
2022-10-13 00:22:00,,0830.1,5.00,0.00,30.2,28.7,00.0,39.0,32.0,13.9,0000.0,0019.21,0006.32,0004.85
2022-10-13 00:23:00,,0830.1,5.00,0.00,30.2,28.7,00.0,39.0,32.0,13.9,0000.0,0020.04,0006.35,0004.87
2022-10-13 00:24:00,,0830.1,5.02,0.00,30.2,28.7,00.0,39.0,32.0,13.9,0000.0,0020.77,0006.32,0004.87
2022-10-13 00:25:00,,0830.1,4.98,0.00,30.2,28.7,00.0,39.0,32.0,13.9,0000.0,0020.13,0006.38,0004.89
2022-10-13 00:26:00,,0830.1,5.00,0.00,30.2,28.7,00.0,39.0,32.0,13.9,0000.0,0019.99,0006.42,0004.91
2022-10-13 00:27:00,,0830.1,5.00,0.00,30.2,28.8,00.0,39.0,32.1,13.9,0000.1,0019.44,0006.42,0004.92
2022-10-13 00:28:00,,0830.1,4.99,0.00,30.2,28.8,00.0,39.1,32.1,13.8,0003.0,0018.61,0006.43,0004.93
2022-10-13 00:29:00,,0830.2,5.01,0.00,30.2,28.8,00.0,39.1,32.1,13.8,0002.6,0018.33,0006.40,0004.92
2022-10-13 00:30:00,,0830.2,5.00,0.00,30.3,28.8,00.0,39.1,32.1,13.8,0002.7,0017.98,0006.38,0004.93
2022-10-13 00:31:00,,0830.3,4.99,0.00,30.3,28.8,00.0,39.1,32.1,13.8,0003.0,0017.79,0006.38,0004.94
2022-10-13 00:32:00,,0830.3,5.01,0.00,30.3,28.9,00.0,39.1,32.1,13.7,0002.9,0017.84,0006.36,0004.93
2022-10-13 00:33:00,,0830.3,5.00,0.00,30.3,28.9,00.0,39.1,32.1,13.7,0002.8,0018.93,0006.31,0004.92
2022-10-13 00:34:00,,0830.2,4.99,0.00,30.3,28.9,00.0,39.1,32.1,13.7,0002.5,0018.01,0006.22,0004.90
2022-10-13 00:35:00,,0830.2,5.01,0.00,30.3,28.8,00.0,39.1,32.1,13.7,0001.8,0017.32,0006.22,0004.89
2022-10-13 00:36:00,,0830.3,5.01,0.00,30.3,28.8,00.0,39.1,32.1,13.7,0001.3,0017.73,0006.17,0004.87
2022-10-13 00:37:00,,0830.3,4.99,0.00,30.3,28.9,00.0,39.1,32.2,13.8,0001.3,0018.77,0006.14,0004.85
2022-10-13 00:38:00,,0830.3,5.01,0.00,30.3,28.9,00.0,39.1,32.2,13.7,0001.1,0018.85,0006.13,0004.84
2022-10-13 00:39:00,,0830.2,5.01,0.00,30.3,28.8,00.0,39.2,32.1,13.7,0000.0,0019.01,0006.12,0004.83
2022-10-13 00:40:00,,0830.3,4.99,0.00,30.3,28.9,00.0,39.2,32.1,13.8,0000.0,0018.59,0006.16,0004.85
2022-10-13 00:41:00,,0830.3,4.99,0.00,30.4,28.9,00.0,39.2,32.2,13.8,0000.0,0017.91,0006.23,0004.87
2022-10-13 00:42:00,,0830.3,5.01,0.00,30.4,28.9,00.0,39.2,32.2,13.7,0000.0,0017.83,0006.26,0004.88
2022-10-13 00:43:00,,0830.3,5.00,0.00,30.4,28.9,00.0,39.2,32.2,13.7,0000.0,0018.44,0006.24,0004.87
2022-10-13 00:44:00,,0830.3,4.99,0.00,30.4,28.8,00.0,39.2,32.2,13.7,0000.0,0017.82,0006.35,0004.88
2022-10-13 00:45:00,,0830.3,5.01,0.00,30.4,28.8,00.0,39.2,32.1,13.7,0000.0,0018.82,0006.43,0004.88
2022-10-13 00:46:00,,0830.3,5.01,0.00,30.4,28.9,00.0,39.2,32.2,13.7,0000.0,0018.99,0006.40,0004.88
2022-10-13 00:47:00,,0830.3,4.99,0.00,30.4,28.9,00.0,39.2,32.2,13.7,0000.0,0018.60,0006.36,0004.87
2022-10-13 00:48:00,,0830.3,5.01,0.00,30.4,28.9,00.0,39.2,32.2,13.7,0000.0,0018.36,0006.33,0004.87
2022-10-13 00:49:00,,0830.3,5.01,0.00,30.4,28.9,00.0,39.2,32.2,13.7,0000.0,0017.76,0006.28,0004.86
2022-10-13 00:50:00,,0830.4,4.99,0.00,30.4,28.9,00.0,39.2,32.2,13.6,0000.0,0017.51,0006.26,0004.85
2022-10-13 00:51:00,,0830.5,5.01,0.00,30.4,28.9,00.0,39.2,32.2,13.7,0000.0,0017.34,0006.19,0004.82
2022-10-13 00:52:00,,0830.4,5.00,0.00,30.4,28.9,00.0,39.2,32.2,13.7,0000.0,0017.36,0006.16,0004.80
2022-10-13 00:53:00,,0830.4,4.99,0.00,30.4,28.9,00.0,39.2,32.2,13.7,0000.0,0017.39,0006.15,0004.76
2022-10-13 00:54:00,,0830.4,5.01,0.00,30.4,29.0,00.0,39.2,32.2,13.7,0000.0,0016.66,0006.21,0004.75
2022-10-13 00:55:00,,0830.5,5.01,0.00,30.4,29.0,00.0,39.2,32.2,13.6,0000.0,0016.49,0006.20,0004.75
2022-10-13 00:56:00,,0830.4,4.99,0.00,30.4,29.0,00.0,39.3,32.2,13.6,0000.0,0016.45,0006.11,0004.75
2022-10-13 00:57:00,,0830.4,5.00,0.00,30.4,29.0,00.0,39.3,32.2,13.6,0000.0,0015.91,0006.11,0004.77
2022-10-13 00:58:00,,0830.4,5.01,0.00,30.4,28.9,00.0,39.3,32.2,13.6,0000.0,0015.99,0006.20,0004.83
2022-10-13 00:59:00,,0830.4,4.99,0.00,30.4,28.9,00.0,39.3,32.2,13.6,0000.0,0015.46,0006.26,0004.88
